Total_Precipitation_Accumulation
2.37 2.33 2.28 2.31 2.21 2.32 2.39 2.35 2.11 1.94 1.84 1.68 1.51 1.54 1.66 1.65 1.70 1.76 1.97 2.04 1.93 2.13 2.57 2.94 2.97 2.99 2.94 2.84 2.76 2.71 2.61 2.56 2.43 2.22 1.90 1.70 1.65 1.53 1.49 1.48 1.54 1.55 1.51
2.75 2.71 2.78 2.78 2.53 2.51 2.60 2.68 2.56 2.36 2.07 1.88 1.70 1.67 1.69 1.66 1.73 1.88 2.04 2.15 2.09 2.05 2.44 2.91 3.17 3.34 3.36 3.34 3.17 2.89 2.70 2.60 2.55 2.43 2.24 1.98 1.83 1.71 1.67 1.59 1.56 1.51 1.46
3.09 3.06 3.19 3.17 2.83 2.72 2.85 2.94 2.92 2.80 2.39 2.10 1.99 1.97 1.92 1.95 1.88 1.96 2.17 2.28 2.23 2.19 2.38 2.55 2.78 3.02 3.20 3.35 3.40 3.22 2.99 2.73 2.57 2.49 2.46 2.35 2.15 1.95 1.83 1.75 1.69 1.61 1.50
3.13 3.24 3.15 2.98 2.91 2.94 3.19 3.39 3.33 3.23 2.97 2.68 2.46 2.18 2.00 1.99 1.96 2.11 2.20 2.28 2.55 2.48 2.42 2.26 2.36 2.59 2.87 3.19 3.45 3.49 3.38 3.15 2.83 2.61 2.53 2.44 2.26 2.05 1.90 1.80 1.78 1.71 1.62
3.23 3.41 3.44 3.37 3.27 3.29 3.36 3.27 3.43 3.27 3.33 3.12 2.65 2.40 2.18 2.09 2.13 2.19 2.28 2.29 2.43 2.56 2.52 2.30 2.24 2.38 2.54 2.87 3.15 3.44 3.55 3.44 3.16 2.88 2.70 2.57 2.40 2.21 2.06 1.97 1.87 1.78 1.71
3.53 3.67 3.62 3.67 3.73 3.79 3.62 3.53 3.55 3.34 3.19 3.10 2.71 2.51 2.35 2.20 2.16 2.14 2.09 2.13 2.24 2.21 2.28 2.28 2.32 2.19 2.29 2.47 2.73 3.16 3.57 3.68 3.55 3.28 3.08 2.94 2.67 2.38 2.15 2.05 2.00 1.94 1.86
4.14 4.15 4.17 4.16 4.02 3.92 3.78 3.60 3.51 3.39 3.14 2.94 2.89 2.57 2.19 1.92 1.83 1.79 1.83 1.90 1.90 1.91 2.03 2.23 2.35 2.29 2.13 2.12 2.30 2.77 3.39 3.70 3.71 3.54 3.35 3.23 2.93 2.55 2.30 2.12 2.03 1.99 1.92
4.85 4.62 4.60 4.38 4.08 3.90 3.76 3.57 3.43 3.27 2.98 2.85 2.81 2.79 2.36 1.99 1.65 1.46 1.55 1.55 1.61 1.78 1.88 1.85 1.94 1.98 1.91 1.94 1.88 2.16 2.48 2.80 3.12 3.36 3.44 3.30 3.07 2.80 2.55 2.39 2.29 2.24 2.16
4.88 4.64 4.39 4.24 4.06 3.89 3.72 3.60 3.47 3.33 3.06 2.86 2.75 2.92 2.76 2.39 1.93 1.69 1.54 1.54 1.62 1.70 1.70 1.66 1.66 1.67 1.72 1.81 1.83 1.91 2.08 2.25 2.54 2.85 3.10 3.13 3.00 2.83 2.70 2.64 2.59 2.60 2.58
4.50 4.11 3.91 3.94 3.81 3.61 3.39 3.14 3.01 2.97 2.90 2.76 2.69 2.59 2.58 2.51 2.32 2.04 1.80 1.79 1.83 1.79 1.72 1.68 1.75 1.83 1.84 1.91 1.89 1.74 1.74 1.80 2.03 2.28 2.58 2.70 2.66 2.63 2.64 2.76 2.88 2.99 3.00
3.93 3.65 3.48 3.56 3.45 3.22 3.01 2.75 2.53 2.43 2.40 2.45 2.48 2.45 2.39 2.35 2.18 2.06 1.91 1.83 1.81 1.77 1.71 1.68 1.74 1.82 1.84 1.80 1.74 1.67 1.69 1.67 1.79 1.95 2.13 2.38 2.51 2.57 2.64 2.76 2.91 3.01 3.08
3.33 3.01 2.73 2.67 2.60 2.45 2.34 2.29 2.21 2.16 2.13 2.19 2.22 2.16 2.15 2.15 2.11 2.10 2.01 1.84 1.82 1.88 1.76 1.65 1.57 1.54 1.59 1.65 1.65 1.77 1.69 1.65 1.70 1.76 1.75 1.79 1.98 2.20 2.39 2.51 2.59 2.77 2.97
2.69 2.37 2.14 2.04 2.01 2.00 1.97 1.98 1.96 1.94 1.89 1.91 1.91 1.90 1.89 1.85 1.87 2.02 2.15 2.08 1.96 1.83 1.79 1.70 1.52 1.48 1.47 1.52 1.68 1.77 1.63 1.54 1.59 1.60 1.50 1.45 1.52 1.68 1.78 1.94 2.13 2.34 2.58
2.13 1.99 1.84 1.73 1.69 1.74 1.75 1.82 1.76 1.67 1.61 1.61 1.56 1.61 1.65 1.60 1.71 1.91 2.05 2.23 2.22 1.97 1.75 1.65 1.55 1.47 1.48 1.50 1.67 1.69 1.49 1.41 1.36 1.40 1.40 1.34 1.31 1.33 1.39 1.46 1.57 1.69 1.89
1.68 1.62 1.59 1.55 1.48 1.43 1.40 1.39 1.36 1.36 1.41 1.43 1.38 1.38 1.39 1.40 1.51 1.66 1.80 2.06 2.27 2.17 1.89 1.63 1.61 1.56 1.50 1.56 1.76 1.49 1.37 1.39 1.25 1.15 1.15 1.14 1.17 1.20 1.21 1.18 1.19 1.25 1.34
1.32 1.32 1.27 1.24 1.27 1.28 1.21 1.15 1.12 1.15 1.18 1.25 1.29 1.25 1.24 1.23 1.29 1.36 1.47 1.66 1.93 2.09 1.93 1.59 1.53 1.47 1.40 1.36 1.59 1.39 1.38 1.41 1.18 1.02 0.95 0.94 0.98 1.04 1.05 1.02 1.02 1.06 1.11
1.14 1.10 1.08 1.05 1.04 1.03 1.01 1.06 1.05 1.06 1.13 1.16 1.16 1.17 1.17 1.20 1.26 1.23 1.29 1.42 1.60 1.81 1.93 1.73 1.57 1.48 1.43 1.46 1.49 1.38 1.29 1.20 1.10 1.04 0.90 0.84 0.85 0.92 0.94 0.92 0.94 0.96 0.98
1.03 1.03 1.03 0.97 0.87 0.85 0.92 1.00 1.01 1.00 1.09 1.09 1.09 1.15 1.15 1.18 1.22 1.22 1.28 1.36 1.50 1.71 1.85 1.89 1.71 1.57 1.49 1.46 1.48 1.41 1.17 1.05 1.04 1.12 0.96 0.85 0.79 0.78 0.86 0.84 0.83 0.88 0.94
1.00 0.98 0.92 0.90 0.87 0.82 0.84 0.84 0.86 0.87 0.93 1.01 1.04 1.10 1.14 1.18 1.17 1.20 1.26 1.32 1.45 1.58 1.77 1.86 1.76 1.63 1.55 1.48 1.56 1.45 1.31 1.36 1.13 1.07 0.98 0.90 0.83 0.82 1.02 1.04 0.82 0.79 0.84
0.91 0.88 0.80 0.78 0.83 0.81 0.74 0.69 0.71 0.76 0.84 0.87 0.89 1.00 1.06 1.09 1.09 1.17 1.23 1.31 1.40 1.56 1.69 1.76 1.68 1.57 1.52 1.51 1.58 1.61 1.53 1.46 1.33 1.05 1.03 0.97 0.93 0.94 1.26 1.75 1.24 0.92 0.87
0.82 0.81 0.75 0.70 0.74 0.73 0.66 0.67 0.68 0.69 0.75 0.76 0.78 0.86 0.92 0.93 0.92 0.99 1.01 1.14 1.31 1.48 1.57 1.65 1.62 1.58 1.52 1.61 1.64 1.56 1.51 1.48 1.36 1.21 1.19 1.07 1.18 1.45 1.96 2.56 2.06 1.42 1.18
0.89 0.84 0.79 0.74 0.73 0.66 0.66 0.62 0.60 0.63 0.71 0.78 0.85 0.86 0.81 0.81 0.77 0.74 0.80 0.90 1.09 1.32 1.52 1.61 1.58 1.58 1.55 1.60 1.70 1.66 1.61 1.62 1.57 1.31 1.26 1.22 1.41 2.13 2.76 3.05 2.58 1.75 1.41
1.01 0.91 0.80 0.77 0.74 0.66 0.57 0.48 0.48 0.56 0.73 0.85 0.91 0.88 0.75 0.71 0.82 0.83 0.84 0.85 0.96 1.10 1.34 1.58 1.64 1.54 1.54 1.60 1.76 1.82 1.72 1.68 1.63 1.40 1.43 1.45 1.65 2.44 2.68 2.79 2.59 1.83 1.51
0.96 0.89 0.82 0.76 0.71 0.54 0.48 0.45 0.48 0.54 0.67 0.72 0.74 0.80 0.87 0.89 0.83 0.85 0.85 0.96 1.05 1.14 1.22 1.35 1.56 1.50 1.45 1.55 1.68 1.71 1.65 1.57 1.48 1.36 1.40 1.57 1.78 2.30 2.29 2.39 2.42 1.89 1.58
0.92 0.84 0.76 0.73 0.69 0.58 0.52 0.50 0.53 0.59 0.65 0.60 0.56 0.60 0.66 0.72 0.72 0.79 0.90 1.08 1.14 1.25 1.24 1.40 1.43 1.37 1.37 1.41 1.37 1.43 1.66 1.77 1.66 1.38 1.28 1.46 1.68 1.98 2.03 2.10 2.02 1.83 1.65
0.88 0.73 0.65 0.66 0.64 0.62 0.55 0.48 0.47 0.51 0.59 0.57 0.59 0.65 0.63 0.57 0.61 0.73 0.93 1.16 1.31 1.36 1.44 1.59 1.56 1.53 1.44 1.40 1.30 1.33 1.63 1.82 1.76 1.52 1.27 1.32 1.48 1.67 1.91 1.88 1.73 1.61 1.65